SCP
0 0 0 0 0 0 0 0 0 -0 -0 0 -0 0 0 0 -0 0 0 0 0 0 0 1 0 0 -0 0 0 0 0 -0 0 0 0 0 0 0 0 0 0 0 0 0
0 0 0 0 0 0 0 0 0 -0 -0 -0 0 0 0 0 0 0 0 0 0 0 0 0 0 -0 -0 0 0 0 0 0 0 0 0 0 0 0 0 0 0 0 0 0
0 0 0 0 0 0 0 0 0 0 0 -0 0 0 0 0 0 0 0 0 0 -0 0 -0 -0 0 -0 0 0 0 0 0 0 0 0 0 0 0 0 0 0 0 0 0
0 0 0 0 0 0 0 0 0 0 0 0 0 0 0 0 -0 0 0 0 0 0 0 0 0 0 0 0 0 0 0 0 0 0 0 0 0 0 0 0 0 0 0 0
0 0 0 0 0 0 0 0 0 0 0 0 0 0 1 0 0 0 0 0 0 0 0 0 0 0 0 0 0 0 0 0 0 0 0 0 0 0 0 0 0 0 0 0
0 0 0 0 0 0 0 0 0 0 0 1 1 1 1 0 0 0 0 0 0 0 0 0 0 0 0 0 0 0 0 0 0 0 0 0 0 0 0 0 0 0 0 0
0 0 0 0 0 0 0 0 0 0 0 0 1 0 0 0 0 0 0 0 0 0 0 0 0 0 0 0 0 0 0 0 0 0 0 0 0 0 0 0 0 0 0 0
0 0 0 0 0 0 0 0 0 0 0 0 0 0 0 0 0 0 0 0 0 0 0 0 0 0 0 0 0 0 0 0 0 0 0 0 0 0 0 0 0 0 0 0
0 0 0 0 0 0 0 0 0 0 0 0 0 -0 0 -0 0 0 0 0 0 0 0 0 0 0 0 0 0 0 0 0 0 0 0 0 0 0 0 0 0 0 0 0
0 0 0 0 0 0 0 0 0 0 0 0 0 0 0 0 0 0 0 0 0 0 0 0 0 0 0 0 0 0 0 0 0 0 0 0 0 0 0 0 0 0 0 0
0 0 0 0 0 0 0 0 0 0 0 0 0 0 0 0 0 0 0 0 0 0 0 0 0 0 0 0 0 0 0 0 0 0 0 0 0 0 0 0 0 0 0 0
0 0 0 0 0 0 0 0 0 0 0 0 0 0 0 0 0 0 0 0 0 0 0 0 0 0 0 0 0 0 0 0 0 0 0 0 0 0 0 0 0 0 0 0
0 0 0 0 -0 0 0 0 0 0 0 0 0 0 0 0 0 0 0 0 0 0 0 0 0 0 0 0 0 0 0 0 0 0 0 0 0 0 0 0 0 0 0 0
0 0 0 0 0 0 0 0 0 0 0 0 0 0 0 0 0 0 0 0 0 0 0 0 0 0 0 0 0 0 0 0 0 0 0 0 0 0 0 0 0 0 0 0
0 0 0 0 0 0 0 0 0 0 0 0 0 0 0 0 0 0 0 0 0 0 0 0 0 0 0 0 0 0 0 0 0 0 0 0 0 0 0 0 0 0 0 0
0 0 0 0 0 0 0 0 0 0 0 0 0 0 0 0 0 0 0 0 0 0 0 0 0 0 0 0 0 0 0 0 0 0 0 0 0 0 0 0 0 0 0 0
0 0 0 0 0 0 0 0 0 0 0 0 0 0 0 0 0 0 0 0 0 0 0 0 0 0 0 0 0 0 0 0 0 0 0 0 0 0 0 0 0 0 0 0
0 0 0 0 0 0 0 0 0 0 0 0 0 0 0 0 0 0 0 0 0 0 0 0 0 0 0 0 0 0 0 0 0 0 0 0 0 0 -0 -0 -0 0 0 0
0 0 0 0 0 0 0 0 0 0 0 0 0 0 0 0 0 0 0 0 0 0 0 0 0 0 0 0 0 0 0 0 0 0 0 0 0 -0 -0 -0 -0 -0 0 0
0 0 0 0 0 0 0 0 0 0 0 0 0 0 0 0 0 0 0 0 0 0 0 0 0 0 0 0 0 0 0 0 0 0 0 0 0 -0 -0 -0 -0 0 0 0
0 0 0 0 0 0 0 0 0 0 0 0 0 0 0 0 0 0 0 0 0 0 0 0 0 0 0 0 0 0 0 0 0 0 0 0 0 -0 -0 -0 -0 0 0 0
0 0 0 0 0 0 0 0 0 0 0 0 0 0 0 0 0 0 0 0 0 0 0 0 0 0 0 0 0 0 0 0 0 0 0 0 0 0 0 -0 -0 -0 0 0
0 0 0 0 0 0 0 0 0 0 0 0 0 0 0 0 0 0 0 0 0 0 0 0 0 0 0 0 0 0 0 0 0 0 0 0 0 0 0 0 0 0 0 0
0 0 0 0 0 0 0 0 0 0 0 0 0 0 0 0 0 0 0 0 0 0 0 0 0 0 0 0 0 0 0 0 0 0 0 0 0 0 0 0 0 0 0 0
0 0 0 0 0 0 0 0 0 0 0 0 0 -0 -0 0 0 0 0 0 0 -0 -0 -0 0 0 0 0 0 0 0 0 0 0 0 0 0 0 0 0 0 0 0 0
0 0 0 0 0 0 0 0 0 0 0 0 0 0 0 0 0 0 0 0 0 -0 -0 0 0 0 0 0 0 0 0 0 0 0 0 0 0 0 0 0 0 0 0 0
0 0 0 0 0 0 0 0 0 0 0 0 0 0 0 0 0 0 0 0 0 0 -0 0 0 0 0 0 0 0 0 0 0 0 0 0 0 0 0 0 0 0 0 0
Wind_Speed_500mb
1 11 5 8 13 12 8 10 10 9 14 19 9 15 20 30 47 59 55 47 37 17 35 48 22 17 17 14 20 19 20 19 16 15 14 16 21 25 29 32 34 36 37 31
10 10 8 5 4 8 2 7 8 6 14 11 12 11 29 56 64 67 57 43 35 13 23 1 44 24 23 19 17 13 10 10 13 21 16 16 26 28 36 36 34 37 37 37
8 5 8 8 8 6 5 5 6 7 11 7 5 13 46 63 70 73 64 50 19 15 10 29 25 18 27 22 17 9 4 10 17 24 24 26 31 26 37 40 39 43 43 44
6 2 4 10 7 7 10 12 13 11 10 10 6 7 34 55 63 70 64 45 19 22 2 30 17 23 23 25 20 16 15 15 18 24 28 29 21 34 42 36 46 53 47 40
10 6 8 5 10 12 11 10 4 10 5 7 19 12 14 45 54 59 61 41 14 16 13 22 25 19 21 22 26 24 29 22 28 23 16 22 32 34 33 45 52 44 37 34
6 10 13 13 5 9 7 8 11 7 15 21 26 7 7 40 48 52 46 26 13 9 5 17 19 20 21 21 22 20 18 31 16 19 26 30 31 35 41 44 44 39 39 37
5 4 13 14 10 14 11 14 11 15 17 30 7 1 10 47 50 47 37 26 17 15 13 10 6 1 3 5 10 16 22 24 28 34 36 39 44 45 45 44 39 41 45 41
6 5 12 21 13 16 10 1 7 11 6 34 36 38 28 13 30 8 21 22 21 17 18 19 13 9 5 9 19 26 32 36 38 40 42 43 47 50 50 49 50 47 47 49
15 11 8 10 5 11 2 7 5 3 19 32 42 49 51 44 19 7 27 40 35 24 26 18 8 8 15 19 25 29 34 38 41 43 47 53 58 60 57 53 50 49 49 57
3 2 15 23 18 16 18 12 11 15 20 45 62 44 30 36 37 46 40 36 32 25 19 13 10 12 18 24 29 32 37 45 51 56 56 56 55 52 52 50 50 51 56 58
11 18 24 29 28 19 17 15 17 24 30 36 38 50 59 60 63 58 42 33 26 19 14 6 9 16 21 28 35 42 46 48 48 47 47 49 50 51 50 46 45 49 50 51
10 14 6 5 5 20 27 18 27 35 35 31 31 52 57 54 44 35 30 25 21 13 8 10 18 27 37 44 47 49 48 48 49 50 48 48 50 53 46 44 40 37 37 39
6 9 11 3 13 18 25 23 34 36 31 31 36 44 46 45 39 34 29 21 12 7 12 22 29 35 36 38 40 41 42 42 43 44 44 45 47 52 57 53 49 44 35 38
21 5 6 5 5 14 27 35 41 35 30 33 44 45 45 45 39 29 21 11 4 12 18 22 25 26 27 28 29 32 32 34 37 39 40 42 43 44 46 53 61 61 51 50
34 28 15 14 14 20 31 39 40 38 36 40 45 50 46 40 32 22 11 5 12 15 15 15 18 19 22 28 29 32 37 40 41 42 44 42 43 44 45 48 51 54 57 53
25 22 20 15 13 17 27 36 42 44 44 52 54 45 36 25 18 10 9 11 9 6 9 15 18 24 29 33 36 38 42 47 48 47 46 46 44 42 43 45 49 50 53 55
31 21 23 20 20 25 32 38 44 52 59 58 48 36 27 18 12 10 7 3 5 13 17 17 20 24 29 31 35 42 46 48 43 45 49 53 54 52 48 46 49 52 54 54
23 20 18 11 21 32 35 37 49 58 56 46 36 28 22 16 12 9 8 11 15 17 15 17 20 22 25 32 37 42 47 50 51 53 54 60 62 58 53 51 52 55 57 58
25 21 19 18 28 32 34 49 52 44 37 31 25 20 15 12 11 13 17 17 14 9 9 13 17 20 25 32 37 42 48 52 55 55 56 62 65 66 66 60 59 58 57 59
19 14 11 20 25 34 51 46 37 31 24 20 19 16 18 20 22 21 17 8 3 1 4 10 14 20 25 31 38 43 47 51 54 54 53 58 65 65 62 64 64 63 61 59
23 25 30 35 38 35 29 27 23 25 24 20 17 19 25 30 23 15 11 7 5 5 5 8 13 18 21 27 33 37 42 47 51 53 53 49 57 63 65 66 65 64 63 61
33 29 22 23 26 29 27 25 23 23 26 27 25 27 30 23 18 11 6 4 3 3 4 7 9 14 22 30 35 38 41 43 46 49 49 47 44 50 56 60 64 66 67 66
27 29 29 23 21 24 24 21 22 20 20 21 22 23 19 11 9 7 4 4 4 3 10 10 11 20 28 34 40 42 43 44 43 43 46 46 46 43 44 47 51 62 71 74
33 33 30 30 29 23 26 27 21 18 16 15 17 18 19 12 9 6 5 2 4 10 9 5 13 20 28 35 41 45 45 40 39 39 43 44 45 45 46 49 54 60 63 62
25 26 25 28 26 22 22 21 24 24 18 14 16 19 17 13 7 6 4 7 9 10 4 8 16 24 32 39 40 34 34 38 36 37 41 41 44 46 47 48 50 54 57 58
27 22 19 16 16 20 21 20 22 23 21 19 17 16 17 17 14 10 8 8 7 9 12 13 20 30 37 36 33 31 31 30 35 35 37 37 40 43 47 49 51 53 56 58
24 22 19 20 20 21 20 18 21 23 22 21 17 17 19 24 25 18 13 11 10 10 12 15 21 30 32 29 31 31 31 29 29 35 34 35 37 42 46 49 51 53 55 58
Wind_Direction_500mb
269 249 227 159 172 179 168 160 157 238 210 265 254 217 181 141 138 139 147 157 141 87 352 305 232 273 257 187 140 117 92 73 47 30 15 1 351 352 353 356 357 353 343 340
5 356 90 108 159 187 132 139 273 250 277 244 299 175 134 144 147 145 151 145 144 137 348 332 191 217 223 190 169 127 88 42 8 345 313 308 318 321 335 335 337 336 334 330
188 339 59 13 241 203 260 170 203 213 244 314 274 218 150 153 165 166 167 161 154 1 52 156 171 195 208 208 206 171 173 317 322 319 289 302 303 310 324 320 321 324 319 316
131 40 154 236 220 199 213 246 245 268 309 326 290 132 161 174 178 181 176 152 153 279 161 182 195 206 209 220 233 241 265 278 298 299 297 303 310 324 322 319 326 329 321 314
134 171 276 325 203 179 179 270 270 244 160 129 132 121 119 176 192 188 188 181 193 236 202 200 202 219 225 236 246 262 286 288 307 304 301 304 315 317 311 319 325 324 325 322
125 143 190 236 205 142 125 292 235 266 247 174 166 150 222 173 185 180 178 190 205 217 217 190 223 256 246 246 264 289 300 312 286 288 298 300 301 301 310 318 320 319 321 313
154 167 286 244 179 127 119 232 207 265 274 195 137 90 172 159 166 172 175 181 173 157 146 190 302 8 228 245 254 279 284 275 281 288 292 299 303 306 305 308 303 305 308 311
98 109 263 176 119 166 220 50 323 274 216 140 131 103 75 78 120 150 155 147 143 146 136 121 97 59 357 282 275 272 271 276 280 284 293 299 302 302 301 298 297 295 297 297
181 215 267 207 251 227 241 155 183 270 171 144 121 113 154 179 142 179 142 125 126 131 135 141 156 232 258 259 269 272 277 284 286 291 296 299 298 299 298 297 296 294 288 291
355 327 257 271 274 259 292 262 238 141 168 152 143 145 184 201 152 157 155 152 148 151 157 171 203 260 276 282 287 290 292 292 293 296 298 300 302 302 302 303 300 295 294 295
270 276 279 276 253 248 251 262 236 174 151 160 153 161 162 155 156 164 164 159 162 172 176 207 275 284 292 298 303 305 307 309 312 315 317 315 310 313 312 308 303 301 302 302
229 257 218 261 306 220 252 271 205 169 155 158 169 160 162 158 162 166 165 163 173 186 232 290 306 312 315 316 317 318 321 322 323 323 321 318 316 315 315 313 307 293 291 300
270 270 196 294 308 265 210 209 183 177 184 189 173 168 164 163 165 166 164 171 193 250 305 314 315 318 321 326 329 330 332 329 326 324 324 325 324 325 328 326 327 325 307 290
207 105 139 161 316 201 208 189 186 191 198 190 177 171 171 168 163 168 171 181 254 311 314 322 327 339 344 349 352 352 351 349 347 345 342 338 343 341 338 337 336 334 332 330
222 225 266 207 186 189 199 198 199 206 203 184 177 172 172 169 166 171 183 257 298 312 324 345 2 9 16 16 12 12 11 8 6 7 7 2 355 350 343 335 332 329 329 330
140 158 176 195 181 190 202 209 214 195 181 172 170 164 163 170 178 198 249 272 297 350 41 48 52 54 44 34 34 31 26 21 18 16 13 7 359 352 346 343 337 330 326 321
157 156 174 183 194 200 204 205 206 181 167 162 160 163 172 182 206 231 253 234 108 101 86 68 63 47 31 27 25 19 18 16 14 13 15 15 12 6 360 355 350 343 339 331
221 226 224 244 216 203 194 189 174 161 158 158 165 176 195 217 235 203 168 140 123 107 76 52 47 38 29 24 23 20 18 17 15 15 14 10 9 8 1 0 357 352 349 347
219 217 205 202 194 188 169 157 155 158 159 168 187 210 209 187 175 167 145 133 120 98 55 39 34 31 29 27 25 23 20 19 17 16 15 16 17 17 16 10 4 357 352 351
140 130 140 154 156 160 154 158 165 169 185 200 195 184 176 162 152 144 139 136 158 145 59 42 37 40 40 35 28 22 17 15 13 12 13 15 17 18 13 9 3 358 356 352
96 105 123 128 144 151 161 174 185 178 176 166 164 171 160 152 146 141 148 141 114 108 76 54 61 54 40 27 18 11 7 6 7 6 6 7 13 17 17 15 9 4 2 358
120 117 142 160 164 151 150 151 154 161 160 157 156 159 162 164 159 153 150 126 127 99 106 106 80 35 16 9 2 359 356 354 356 357 358 358 360 8 13 20 17 16 12 7
132 133 146 140 145 137 136 145 148 152 159 166 173 177 171 156 169 166 130 129 142 157 147 117 40 12 1 357 352 348 344 345 346 347 350 353 354 350 352 359 5 5 4 4
145 148 149 144 169 182 171 162 157 154 158 162 165 164 168 168 166 159 215 216 183 166 151 28 4 359 352 348 345 344 344 342 341 343 348 350 350 347 347 341 345 350 354 358
161 157 167 176 180 169 167 165 162 162 162 160 161 167 174 188 193 232 286 224 194 188 281 316 343 341 340 338 339 338 340 349 348 347 349 350 352 352 351 349 352 353 354 357
173 181 187 188 178 176 173 183 181 186 194 202 208 217 227 235 241 244 249 196 192 262 291 308 326 339 339 336 339 336 333 341 354 354 353 353 356 355 354 353 353 352 350 351
186 184 184 194 197 196 197 203 206 213 225 232 243 249 262 262 253 237 237 251 263 277 277 310 330 343 348 342 333 328 337 334 338 348 351 355 358 360 359 356 355 354 353 352
Wind_Speed_850mb
1 11 5 8 13 12 8 10 10 9 14 19 9 15 20 30 47 59 55 47 37 17 35 48 22 17 17 14 20 19 20 19 16 15 14 16 21 25 29 32 34 36 37 31
10 10 8 5 4 8 2 7 8 6 14 11 12 11 29 56 64 67 57 43 35 13 23 1 44 24 23 19 17 13 10 10 13 21 16 16 26 28 36 36 34 37 37 37
8 5 8 8 8 6 5 5 6 7 11 7 5 13 46 63 70 73 64 50 19 15 10 29 25 18 27 22 17 9 4 10 17 24 24 26 31 26 37 40 39 43 43 44
6 2 4 10 7 7 10 12 13 11 10 10 6 7 34 55 63 70 64 45 19 22 2 30 17 23 23 25 20 16 15 15 18 24 28 29 21 34 42 36 46 53 47 40
10 6 8 5 10 12 11 10 4 10 5 7 19 12 14 45 54 59 61 41 14 16 13 22 25 19 21 22 26 24 29 22 28 23 16 22 32 34 33 45 52 44 37 34
6 10 13 13 5 9 7 8 11 7 15 21 26 7 7 40 48 52 46 26 13 9 5 17 19 20 21 21 22 20 18 31 16 19 26 30 31 35 41 44 44 39 39 37
5 4 13 14 10 14 11 14 11 15 17 30 7 1 10 47 50 47 37 26 17 15 13 10 6 1 3 5 10 16 22 24 28 34 36 39 44 45 45 44 39 41 45 41
6 5 12 21 13 16 10 1 7 11 6 34 36 38 28 13 30 8 21 22 21 17 18 19 13 9 5 9 19 26 32 36 38 40 42 43 47 50 50 49 50 47 47 49
15 11 8 10 5 11 2 7 5 3 19 32 42 49 51 44 19 7 27 40 35 24 26 18 8 8 15 19 25 29 34 38 41 43 47 53 58 60 57 53 50 49 49 57
3 2 15 23 18 16 18 12 11 15 20 45 62 44 30 36 37 46 40 36 32 25 19 13 10 12 18 24 29 32 37 45 51 56 56 56 55 52 52 50 50 51 56 58
11 18 24 29 28 19 17 15 17 24 30 36 38 50 59 60 63 58 42 33 26 19 14 6 9 16 21 28 35 42 46 48 48 47 47 49 50 51 50 46 45 49 50 51
10 14 6 5 5 20 27 18 27 35 35 31 31 52 57 54 44 35 30 25 21 13 8 10 18 27 37 44 47 49 48 48 49 50 48 48 50 53 46 44 40 37 37 39
6 9 11 3 13 18 25 23 34 36 31 31 36 44 46 45 39 34 29 21 12 7 12 22 29 35 36 38 40 41 42 42 43 44 44 45 47 52 57 53 49 44 35 38
21 5 6 5 5 14 27 35 41 35 30 33 44 45 45 45 39 29 21 11 4 12 18 22 25 26 27 28 29 32 32 34 37 39 40 42 43 44 46 53 61 61 51 50
34 28 15 14 14 20 31 39 40 38 36 40 45 50 46 40 32 22 11 5 12 15 15 15 18 19 22 28 29 32 37 40 41 42 44 42 43 44 45 48 51 54 57 53
25 22 20 15 13 17 27 36 42 44 44 52 54 45 36 25 18 10 9 11 9 6 9 15 18 24 29 33 36 38 42 47 48 47 46 46 44 42 43 45 49 50 53 55
31 21 23 20 20 25 32 38 44 52 59 58 48 36 27 18 12 10 7 3 5 13 17 17 20 24 29 31 35 42 46 48 43 45 49 53 54 52 48 46 49 52 54 54
23 20 18 11 21 32 35 37 49 58 56 46 36 28 22 16 12 9 8 11 15 17 15 17 20 22 25 32 37 42 47 50 51 53 54 60 62 58 53 51 52 55 57 58
25 21 19 18 28 32 34 49 52 44 37 31 25 20 15 12 11 13 17 17 14 9 9 13 17 20 25 32 37 42 48 52 55 55 56 62 65 66 66 60 59 58 57 59
19 14 11 20 25 34 51 46 37 31 24 20 19 16 18 20 22 21 17 8 3 1 4 10 14 20 25 31 38 43 47 51 54 54 53 58 65 65 62 64 64 63 61 59
23 25 30 35 38 35 29 27 23 25 24 20 17 19 25 30 23 15 11 7 5 5 5 8 13 18 21 27 33 37 42 47 51 53 53 49 57 63 65 66 65 64 63 61
33 29 22 23 26 29 27 25 23 23 26 27 25 27 30 23 18 11 6 4 3 3 4 7 9 14 22 30 35 38 41 43 46 49 49 47 44 50 56 60 64 66 67 66
27 29 29 23 21 24 24 21 22 20 20 21 22 23 19 11 9 7 4 4 4 3 10 10 11 20 28 34 40 42 43 44 43 43 46 46 46 43 44 47 51 62 71 74
33 33 30 30 29 23 26 27 21 18 16 15 17 18 19 12 9 6 5 2 4 10 9 5 13 20 28 35 41 45 45 40 39 39 43 44 45 45 46 49 54 60 63 62
25 26 25 28 26 22 22 21 24 24 18 14 16 19 17 13 7 6 4 7 9 10 4 8 16 24 32 39 40 34 34 38 36 37 41 41 44 46 47 48 50 54 57 58
27 22 19 16 16 20 21 20 22 23 21 19 17 16 17 17 14 10 8 8 7 9 12 13 20 30 37 36 33 31 31 30 35 35 37 37 40 43 47 49 51 53 56 58
24 22 19 20 20 21 20 18 21 23 22 21 17 17 19 24 25 18 13 11 10 10 12 15 21 30 32 29 31 31 31 29 29 35 34 35 37 42 46 49 51 53 55 58
Wind_Direction_850mb
269 249 227 159 172 179 168 160 157 238 210 265 254 217 181 141 138 139 147 157 141 87 352 305 232 273 257 187 140 117 92 73 47 30 15 1 351 352 353 356 357 353 343 340
5 356 90 108 159 187 132 139 273 250 277 244 299 175 134 144 147 145 151 145 144 137 348 332 191 217 223 190 169 127 88 42 8 345 313 308 318 321 335 335 337 336 334 330
188 339 59 13 241 203 260 170 203 213 244 314 274 218 150 153 165 166 167 161 154 1 52 156 171 195 208 208 206 171 173 317 322 319 289 302 303 310 324 320 321 324 319 316
131 40 154 236 220 199 213 246 245 268 309 326 290 132 161 174 178 181 176 152 153 279 161 182 195 206 209 220 233 241 265 278 298 299 297 303 310 324 322 319 326 329 321 314
134 171 276 325 203 179 179 270 270 244 160 129 132 121 119 176 192 188 188 181 193 236 202 200 202 219 225 236 246 262 286 288 307 304 301 304 315 317 311 319 325 324 325 322
125 143 190 236 205 142 125 292 235 266 247 174 166 150 222 173 185 180 178 190 205 217 217 190 223 256 246 246 264 289 300 312 286 288 298 300 301 301 310 318 320 319 321 313
154 167 286 244 179 127 119 232 207 265 274 195 137 90 172 159 166 172 175 181 173 157 146 190 302 8 228 245 254 279 284 275 281 288 292 299 303 306 305 308 303 305 308 311
98 109 263 176 119 166 220 50 323 274 216 140 131 103 75 78 120 150 155 147 143 146 136 121 97 59 357 282 275 272 271 276 280 284 293 299 302 302 301 298 297 295 297 297
181 215 267 207 251 227 241 155 183 270 171 144 121 113 154 179 142 179 142 125 126 131 135 141 156 232 258 259 269 272 277 284 286 291 296 299 298 299 298 297 296 294 288 291
355 327 257 271 274 259 292 262 238 141 168 152 143 145 184 201 152 157 155 152 148 151 157 171 203 260 276 282 287 290 292 292 293 296 298 300 302 302 302 303 300 295 294 295
270 276 279 276 253 248 251 262 236 174 151 160 153 161 162 155 156 164 164 159 162 172 176 207 275 284 292 298 303 305 307 309 312 315 317 315 310 313 312 308 303 301 302 302
229 257 218 261 306 220 252 271 205 169 155 158 169 160 162 158 162 166 165 163 173 186 232 290 306 312 315 316 317 318 321 322 323 323 321 318 316 315 315 313 307 293 291 300
270 270 196 294 308 265 210 209 183 177 184 189 173 168 164 163 165 166 164 171 193 250 305 314 315 318 321 326 329 330 332 329 326 324 324 325 324 325 328 326 327 325 307 290
207 105 139 161 316 201 208 189 186 191 198 190 177 171 171 168 163 168 171 181 254 311 314 322 327 339 344 349 352 352 351 349 347 345 342 338 343 341 338 337 336 334 332 330
222 225 266 207 186 189 199 198 199 206 203 184 177 172 172 169 166 171 183 257 298 312 324 345 2 9 16 16 12 12 11 8 6 7 7 2 355 350 343 335 332 329 329 330
140 158 176 195 181 190 202 209 214 195 181 172 170 164 163 170 178 198 249 272 297 350 41 48 52 54 44 34 34 31 26 21 18 16 13 7 359 352 346 343 337 330 326 321
157 156 174 183 194 200 204 205 206 181 167 162 160 163 172 182 206 231 253 234 108 101 86 68 63 47 31 27 25 19 18 16 14 13 15 15 12 6 360 355 350 343 339 331
221 226 224 244 216 203 194 189 174 161 158 158 165 176 195 217 235 203 168 140 123 107 76 52 47 38 29 24 23 20 18 17 15 15 14 10 9 8 1 0 357 352 349 347
219 217 205 202 194 188 169 157 155 158 159 168 187 210 209 187 175 167 145 133 120 98 55 39 34 31 29 27 25 23 20 19 17 16 15 16 17 17 16 10 4 357 352 351
140 130 140 154 156 160 154 158 165 169 185 200 195 184 176 162 152 144 139 136 158 145 59 42 37 40 40 35 28 22 17 15 13 12 13 15 17 18 13 9 3 358 356 352
96 105 123 128 144 151 161 174 185 178 176 166 164 171 160 152 146 141 148 141 114 108 76 54 61 54 40 27 18 11 7 6 7 6 6 7 13 17 17 15 9 4 2 358
120 117 142 160 164 151 150 151 154 161 160 157 156 159 162 164 159 153 150 126 127 99 106 106 80 35 16 9 2 359 356 354 356 357 358 358 360 8 13 20 17 16 12 7
132 133 146 140 145 137 136 145 148 152 159 166 173 177 171 156 169 166 130 129 142 157 147 117 40 12 1 357 352 348 344 345 346 347 350 353 354 350 352 359 5 5 4 4
145 148 149 144 169 182 171 162 157 154 158 162 165 164 168 168 166 159 215 216 183 166 151 28 4 359 352 348 345 344 344 342 341 343 348 350 350 347 347 341 345 350 354 358
161 157 167 176 180 169 167 165 162 162 162 160 161 167 174 188 193 232 286 224 194 188 281 316 343 341 340 338 339 338 340 349 348 347 349 350 352 352 351 349 352 353 354 357
173 181 187 188 178 176 173 183 181 186 194 202 208 217 227 235 241 244 249 196 192 262 291 308 326 339 339 336 339 336 333 341 354 354 353 353 356 355 354 353 353 352 350 351
186 184 184 194 197 196 197 203 206 213 225 232 243 249 262 262 253 237 237 251 263 277 277 310 330 343 348 342 333 328 337 334 338 348 351 355 358 360 359 356 355 354 353 352